Find Starlink 30841

NORAD ID: 58208 Int'l Des: 2023-170 Owner: SPXS Country: US Constellation: starlink operational
LEOCIRCULAR

Live Position

Loading 3D Globe...

About Starlink 30841

Description loading...

Upcoming Passes

Passes for default location (London). Set your location on the main map for personalized predictions.

Altitude History

Loading altitude history...

Two-Line Element Set

1 58208U 23170C 26120.78299336 .00001699 00000-0 71264-4 0 9993
2 58208 43.0075 260.2584 0002233 284.3386 75.7218 15.27575984138268
Epoch: Apr 30, 2026 • Age: 19 hours

Current Status

Altitude 488.5 km
Velocity 7.62 km/s
Sub-Earth Point -26.75°S, 162.21°E
Launch Date Nov 4, 2023
Age 2.4 years
Type internet

Technical Details

Classification Payload
Mass 730.00 kg
Dry Mass 700.00 kg
Total Mass 730.00 kg
Length 0.30 m
Diameter 4.10 m
Span 29.00 m
Shape Box + pan
Manufacturer SPXS
Bus Type Starlink V2M
Phase Status In Orbit
Owner/State SPXS/US

Most Searched